Location: Peterborough
(44.3091°N, 78.3197°W)
Time: 15:54:58
(UTC-04:00)

Transit 4A - Pass Details

Date: 28 March 2023
Orbit: 864 x 980 km, 66.8° (Epoch: 04 June)

Event Time Altitude Azimuth Distance (km) Brightness Sun altitude
Rises 05:43:07 0° 173° (S) 3,428 10.7 -14.6°
Reaches altitude 10° 05:45:57 10° 161° (SSE) 2,499 10.2 -14.2°
Maximum altitude 05:50:33 25° 107° (ESE) 1,682 9.9 -13.4°
Drops below altitude 10° 05:55:13 10° 54° (NE) 2,545 11.4 -12.6°
Sets 05:58:08 0° 42° (NE) 3,505 12.0 -12.1°
